Location: Unspecified
(58.7730°N, 5.8460°E)
Time: 12:38:27
(UTC+02:00)

Cosmos 1674 - Visible Passes

Search period start: 29 March 2015 00:00
Search period end: 08 April 2015 01:00
Orbit: 507 x 535 km, 82.5° (Epoch: 28 March)

Date Brightness Start Highest point End Pass type
(mag) Time Alt. Az. Time Alt. Az. Time Alt. Az.
29 Mar 5.5 22:18:39 10° NW 22:21:19 18° W 22:23:55 10° SW visible
30 Mar 5.4 22:05:12 10° NW 22:08:04 20° W 22:10:51 10° SW visible
31 Mar 5.3 21:51:45 10° NW 21:54:46 22° W 21:57:44 10° SW visible
01 Apr 5.2 21:38:19 10° NW 21:41:28 24° W 21:44:36 10° SW visible
02 Apr 5.0 21:24:53 10° NNW 21:28:10 27° W 21:31:25 10° SSW visible
03 Apr 4.9 21:11:27 10° NNW 21:14:51 30° W 21:18:13 10° SSW visible
